SCP
0 0 0 0 0 0 0 0 0 0 0 0 0 0 0 0 0 0 0 0 0 0 0 0 0 0 0 0 0 0 0 0 0 0 0 0 0 0
0 0 0 0 0 0 0 0 0 0 0 0 0 0 0 0 0 0 0 0 0 0 0 0 0 0 0 0 0 0 0 0 0 0 0 0 0 0
0 0 0 0 0 0 0 0 0 0 0 0 0 0 0 0 0 0 0 0 0 0 0 0 0 0 0 0 0 0 0 0 0 0 0 0 0 0
0 0 0 0 0 0 0 0 0 0 0 0 0 -0 0 0 0 0 0 0 0 0 0 0 0 0 0 0 0 0 0 0 0 0 0 0 0 0
0 0 0 0 0 0 0 0 0 0 0 0 0 -0 0 0 0 0 0 0 0 0 0 0 0 0 0 0 0 0 0 0 0 0 0 0 0 0
0 0 0 0 0 0 0 0 0 0 0 0 0 0 0 0 0 0 0 0 0 0 0 0 0 0 0 0 0 0 0 0 0 0 0 0 0 0
0 0 0 0 0 0 0 0 0 0 0 0 0 0 0 0 0 0 0 0 0 0 0 0 0 0 0 0 0 0 0 0 0 0 0 0 0 0
0 0 0 0 0 0 0 0 0 0 0 0 0 0 0 0 0 0 0 0 0 0 0 0 0 0 0 0 0 0 0 0 0 0 0 0 0 0
0 0 0 0 0 0 0 0 0 0 0 0 0 0 0 0 0 0 0 0 0 0 0 0 0 0 0 0 0 0 0 0 0 0 0 0 0 0
0 0 0 0 0 0 0 0 0 0 0 0 0 0 0 0 0 0 0 0 0 0 0 0 0 0 0 0 0 0 0 0 0 0 0 0 0 0
0 0 0 0 0 0 0 0 0 0 0 0 0 0 0 0 0 0 0 0 0 0 0 0 0 0 0 0 0 0 0 0 0 0 0 0 0 0
0 0 0 0 0 0 0 0 0 0 0 0 0 0 0 0 0 0 0 0 0 0 0 0 0 0 0 0 0 0 0 0 0 0 0 0 0 0
0 0 0 0 0 0 0 0 0 0 0 0 0 0 0 0 0 0 0 0 0 0 0 0 0 0 0 0 0 0 0 0 0 0 0 0 0 0
0 0 0 0 0 0 0 0 0 0 0 0 0 0 0 0 0 0 0 0 0 0 0 0 0 0 0 0 0 0 0 0 0 0 0 0 0 0
0 0 0 0 0 0 0 0 0 0 0 0 0 0 0 0 0 0 0 0 0 0 0 0 0 0 0 0 0 0 0 0 0 0 0 0 0 0
0 0 0 0 0 0 0 0 0 0 0 0 0 0 0 0 0 0 0 0 0 0 0 0 0 0 0 0 0 0 0 0 0 0 0 0 0 0
0 0 0 0 0 0 0 0 0 0 0 0 0 0 0 0 0 0 0 0 0 0 0 0 0 0 0 0 0 0 0 0 0 0 0 0 0 0
0 0 0 0 0 0 0 0 0 0 0 0 0 0 0 0 0 0 0 0 0 0 0 0 0 0 0 0 0 0 0 0 0 0 0 0 0 0
0 0 0 0 0 0 0 0 0 0 0 0 0 0 0 0 0 0 0 0 0 0 0 0 0 0 0 0 0 0 0 0 0 0 0 0 0 0
0 0 0 0 0 0 0 0 0 0 0 0 0 0 0 0 0 0 0 0 0 0 0 0 0 0 0 0 0 0 0 0 0 0 0 0 0 0
0 0 0 0 0 0 0 0 0 0 0 0 0 0 0 0 0 0 0 0 0 0 0 0 0 0 0 0 0 0 0 0 0 0 0 0 0 0
0 0 0 0 0 0 0 0 0 0 0 0 0 0 0 0 0 0 0 0 0 0 0 0 0 0 0 0 0 0 0 0 0 0 0 0 0 0
0 0 0 0 0 0 0 0 0 0 0 0 0 0 0 0 0 0 0 0 0 0 0 0 0 0 0 0 0 0 0 0 0 0 0 0 0 0
Wind_Speed
10 11 10 9 9 9 9 9 10 12 12 11 9 9 9 9 10 10 12 13 14 15 15 15 15 15 14 13 13 12 11 10 9 10 10 11 12 13
9 11 11 9 9 9 9 10 10 11 13 10 10 10 11 10 12 12 12 14 14 15 14 14 14 13 12 12 11 11 10 9 9 10 10 9 10 10
11 12 12 12 10 9 9 9 10 10 12 12 10 11 12 12 11 11 11 11 9 13 14 13 13 12 11 11 10 10 10 9 9 10 10 9 8 8
12 12 12 10 12 10 9 10 10 10 11 13 11 10 12 11 11 11 10 9 8 9 12 12 12 11 11 10 9 9 8 8 8 8 8 7 7 7
12 12 12 12 12 10 11 10 9 9 9 10 11 10 9 9 10 10 10 8 8 7 7 8 9 9 9 9 8 8 8 7 7 7 6 6 6 6
12 12 13 12 13 12 10 11 10 10 10 9 9 9 8 8 7 7 7 6 5 4 4 5 5 6 7 8 8 7 7 7 7 7 6 6 5 5
12 12 12 13 15 13 10 10 10 9 8 8 8 8 8 7 6 6 6 5 5 4 3 2 2 2 3 5 6 6 6 6 6 6 6 5 4 4
12 12 12 12 13 15 16 16 14 12 10 9 8 9 9 8 6 6 6 6 5 3 2 1 1 1 1 1 4 6 6 6 6 5 5 4 4 4
11 11 9 9 12 11 12 14 15 16 15 12 11 11 10 8 7 7 6 5 5 4 2 1 1 1 1 1 5 6 5 5 5 5 4 4 4 4
11 11 10 10 10 10 10 10 11 11 11 10 10 11 10 9 8 7 6 4 3 3 2 1 1 1 1 0 4 4 4 4 4 5 5 4 4 4
10 9 9 10 12 13 10 10 10 9 9 11 12 12 12 11 8 4 4 3 2 2 2 1 0 1 2 1 2 3 4 5 5 6 5 5 5 5
7 8 9 10 11 12 10 9 10 9 8 7 8 8 7 7 7 6 5 4 3 2 2 1 2 1 1 1 1 1 2 4 6 6 5 5 5 3
6 6 6 10 11 12 11 8 10 10 7 6 5 5 4 3 3 3 3 3 3 2 2 1 1 1 1 1 1 1 1 2 2 3 5 6 5 3
7 6 7 11 12 11 9 9 10 9 5 4 3 3 3 2 1 0 0 0 0 1 2 2 1 2 3 2 1 1 2 2 2 2 3 5 5 4
7 9 10 11 11 8 8 9 8 5 3 3 3 3 2 1 1 1 2 3 3 2 1 0 1 2 2 3 3 2 2 2 2 2 2 3 2 2
7 7 9 8 6 6 6 5 3 3 3 2 2 2 1 0 1 1 2 2 3 3 3 3 1 2 2 3 3 3 2 2 2 2 2 2 2 2
7 5 4 4 4 4 3 3 3 3 2 1 1 1 0 1 1 1 2 2 3 2 3 3 4 5 5 4 4 3 3 3 2 2 2 2 2 1
7 4 4 4 4 4 4 3 3 2 2 1 1 1 1 1 2 2 2 3 3 3 3 2 3 4 4 5 6 3 3 3 2 2 2 2 2 1
4 3 3 3 3 4 3 3 2 2 2 1 1 1 1 2 2 2 2 3 3 3 2 2 2 3 5 4 3 4 2 2 2 2 2 2 1 1
3 3 4 4 3 3 2 2 2 2 1 1 1 2 2 2 2 2 2 3 3 3 3 2 2 2 4 4 3 3 3 2 2 3 2 2 2 2
4 3 3 4 3 3 2 2 1 1 1 1 2 2 2 2 2 2 3 3 3 3 3 3 2 3 3 4 5 4 4 5 3 2 1 1 2 2
4 4 4 4 3 2 2 1 1 1 1 2 2 2 2 2 2 2 2 3 3 4 4 3 3 4 4 6 7 6 4 4 5 6 5 4 1 1
5 4 4 3 3 2 2 1 1 1 1 1 2 2 2 2 2 2 3 3 4 5 5 5 5 5 5 6 6 6 6 4 4 4 5 6 7 6
Wind_Direction
265 264 262 262 259 260 262 262 270 282 283 286 285 279 277 275 273 274 274 265 264 264 264 263 257 251 248 246 245 246 244 249 241 235 236 240 240 236
266 266 264 263 261 259 259 260 259 266 277 282 286 286 281 277 275 273 275 271 262 258 259 260 252 245 243 241 237 237 240 235 230 228 229 234 237 234
268 267 267 267 265 262 260 261 260 261 269 280 283 285 282 280 280 275 275 270 263 256 256 252 248 241 235 233 233 233 230 224 224 224 225 231 233 229
272 270 270 270 267 265 262 262 263 262 265 276 283 283 280 279 280 279 277 274 268 261 252 247 244 237 231 225 222 223 220 218 217 217 218 217 222 223
273 272 271 271 269 267 266 264 265 265 264 269 278 280 281 279 282 281 277 277 271 262 250 245 237 230 224 216 215 212 208 202 204 201 202 205 216 218
273 271 271 268 269 270 269 268 267 266 264 265 271 276 278 278 274 277 280 280 278 273 264 255 234 224 217 211 212 205 193 187 186 188 189 193 203 210
276 273 271 269 269 269 270 271 270 267 267 267 270 273 273 271 268 272 272 280 288 271 259 261 251 239 221 200 193 179 173 173 174 177 179 179 185 192
279 278 276 271 270 270 270 270 270 268 268 268 270 267 271 271 273 273 274 276 282 277 245 274 271 274 272 211 146 148 158 166 171 173 176 181 191 192
282 282 279 278 277 274 274 274 272 267 264 263 263 264 269 271 269 269 268 267 269 269 235 278 306 281 274 118 126 140 151 160 166 171 178 184 189 193
283 282 282 282 280 281 280 278 275 272 269 265 262 265 265 267 264 260 260 260 277 278 245 225 275 292 331 108 118 138 153 165 169 169 163 161 162 155
283 282 282 283 286 285 280 277 278 280 278 272 271 271 272 270 262 252 238 217 238 280 281 201 199 36 15 16 93 126 138 140 145 146 143 140 141 142
289 286 282 285 291 291 283 279 279 283 286 287 284 281 274 269 261 248 232 212 213 246 265 174 161 120 55 11 29 97 130 133 136 138 141 138 138 146
293 292 291 297 297 299 294 285 284 288 282 280 282 283 279 272 266 256 238 219 215 227 216 184 167 151 137 126 6 22 85 105 120 125 131 132 128 130
294 294 295 301 300 302 301 300 299 292 277 275 276 280 275 263 255 216 112 108 295 214 214 211 176 173 150 144 129 74 70 79 93 101 110 117 114 109
295 298 303 306 301 300 305 308 304 294 284 276 276 277 274 249 168 105 94 84 65 44 14 348 149 155 150 148 136 124 98 74 78 89 101 114 114 109
303 305 307 310 308 308 309 311 309 303 293 278 272 282 289 179 133 121 120 110 90 57 40 46 81 127 119 113 118 112 98 104 96 90 92 94 93 89
310 309 314 322 326 326 325 324 320 318 325 326 296 294 23 62 80 94 110 108 101 94 69 60 66 75 77 91 108 103 100 96 97 95 99 96 87 84
312 313 320 325 326 326 327 325 328 331 330 330 337 12 59 73 88 85 90 102 108 104 97 94 103 99 89 61 39 89 93 92 93 97 101 103 82 55
320 322 321 323 323 323 322 327 333 337 339 346 12 38 56 69 88 99 103 106 103 102 99 102 110 117 117 106 49 30 85 103 102 92 82 85 86 33
337 327 322 317 316 320 326 332 332 339 358 17 27 39 60 75 86 102 110 112 106 99 87 68 72 102 118 118 108 59 47 99 113 95 71 57 52 47
335 327 322 318 318 319 319 325 337 358 14 18 33 49 64 78 83 91 100 102 100 101 97 78 64 92 105 106 100 82 56 50 59 83 88 94 83 68
332 327 321 319 320 319 324 335 359 25 31 43 52 56 58 66 75 81 94 100 97 100 97 92 91 94 95 106 108 102 88 68 63 58 45 39 67 89
329 327 322 321 324 332 343 1 22 42 46 52 56 58 64 62 61 78 89 95 103 105 104 100 91 85 88 101 103 101 96 88 77 71 58 49 64 71